Pella, IA

9:45 PM CDT on April 30, 2017 (GMT -0500)
Pella Municipal

Weather History for KPEA - January, 2014

Change the Weather History Date:

Thursday, January 16, 2014

  Actual Average (KOXV) Record (KOXV)
Temperature  
Mean Temperature 22 °F -  
Max Temperature 37 °F 32 °F 61 °F (1990)
Min Temperature 7 °F 11 °F -20 °F (1977)
Degree Days  
Heating Degree Days 43    
Moisture  
Dew Point 17 °F    
Average Humidity 68    
Maximum Humidity 94    
Minimum Humidity 56    
Precipitation  
Precipitation 0.01 in - - ()
Sea Level Pressure  
Sea Level Pressure 29.71 in    
Wind  
Wind Speed 13 mph (WNW)    
Max Wind Speed 30 mph    
Max Gust Speed 40 mph    
Visibility 8 miles    
Events Snow    
Averages and records for this station are not official NWS values.
T = Trace of Precipitation, MM = Missing Value Source: NWS Daily Summary

Daily Weather History Graph

Daily Weather History Graph

Search for Another Location

Airport or City:

Trip Planner

Search our weather history database for the weather conditions in past years. The results will help you decide how hot, cold, wet, or windy it might be!

Date:

Astronomy

Jan. 16, 2014 Rise Set
Actual Time 7:35 AM CST 5:08 PM CST
Civil Twilight 7:04 AM CST 5:38 PM CST
Nautical Twilight 6:30 AM CST 6:12 PM CST
Astronomical Twilight 5:57 AM CST 6:46 PM CST
Moon 6:01 PM CST (1/16) 7:28 AM CST (1/16)
Length of Visible Light 10h 34m
Length of Day
9h 33m
Full, 100% of the Moon is Illuminated
Jan 16
Full
Jan 23
Last Quarter
Jan 30
New
Feb 6
First Quarter
Feb 14
Full

Hourly Weather History & Observations

Time (CST) Temp. Windchill Dew Point Humidity Pressure Visibility Wind Dir Wind Speed Gust Speed Precip Events Conditions
12:15 AM 28.8 °F 19.5 °F 16.7 °F 61% 29.68 in 10.0 mi SSW 10.4 mph - N/A   Clear
12:35 AM 29.3 °F 19.6 °F 17.6 °F 62% 29.68 in 10.0 mi SW 11.5 mph - N/A   Clear
12:55 AM 30.2 °F 20.8 °F 18.5 °F 62% 29.67 in 10.0 mi SW 11.5 mph 19.6 mph N/A   Clear
1:15 AM 30.7 °F 22.6 °F 19.0 °F 62% 29.66 in 10.0 mi SW 9.2 mph 18.4 mph N/A   Clear
1:35 AM 31.5 °F 21.8 °F 19.4 °F 61% 29.66 in 10.0 mi WSW 12.7 mph - N/A   Clear
1:55 AM 31.6 °F 23.7 °F 20.1 °F 62% 29.65 in 10.0 mi WSW 9.2 mph 16.1 mph N/A   Clear
2:15 AM 31.8 °F 23.9 °F 20.5 °F 63% 29.64 in 10.0 mi WSW 9.2 mph - N/A   Clear
2:35 AM 31.6 °F 23.7 °F 20.8 °F 64% 29.65 in 10.0 mi WSW 9.2 mph - N/A   Scattered Clouds
2:55 AM 32.0 °F 24.2 °F 21.4 °F 65% 29.64 in 10.0 mi WSW 9.2 mph - N/A   Scattered Clouds
3:15 AM 31.8 °F 24.6 °F 21.9 °F 67% 29.63 in 10.0 mi WSW 8.1 mph - N/A   Clear
3:35 AM 31.8 °F 25.4 °F 22.5 °F 68% 29.63 in 10.0 mi WSW 6.9 mph - N/A   Clear
3:55 AM 32.0 °F 24.8 °F 22.8 °F 69% 29.61 in 10.0 mi West 8.1 mph - N/A   Clear
4:15 AM 32.4 °F 25.3 °F 23.0 °F 68% 29.61 in 10.0 mi West 8.1 mph - N/A   Clear
4:35 AM 32.0 °F 24.8 °F 23.0 °F 69% 29.60 in 10.0 mi West 8.1 mph - N/A   Clear
4:55 AM 32.0 °F 24.8 °F 23.0 °F 69% 29.60 in 10.0 mi West 8.1 mph - N/A   Clear
5:15 AM 33.1 °F 26.1 °F 23.4 °F 67% 29.60 in 10.0 mi West 8.1 mph - N/A   Scattered Clouds
5:35 AM 32.5 °F 27.1 °F 23.0 °F 68% 29.60 in 10.0 mi West 5.8 mph - N/A   Scattered Clouds
5:55 AM 32.0 °F 25.6 °F 23.0 °F 69% 29.60 in 10.0 mi West 6.9 mph - N/A   Clear
6:15 AM 32.2 °F 24.4 °F 23.0 °F 69% 29.60 in 10.0 mi West 9.2 mph - N/A   Clear
6:35 AM 35.1 °F 26.4 °F 23.0 °F 61% 29.60 in 10.0 mi WNW 12.7 mph - N/A   Clear
6:55 AM 36.7 °F 28.4 °F 23.0 °F 58% 29.61 in 10.0 mi West 12.7 mph 24.2 mph N/A   Scattered Clouds
7:15 AM 36.5 °F 26.7 °F 23.0 °F 58% 29.61 in 10.0 mi WNW 17.3 mph 21.9 mph N/A   Scattered Clouds
7:35 AM 37.0 °F 27.7 °F 23.5 °F 58% 29.61 in 10.0 mi West 16.1 mph 23.0 mph N/A   Mostly Cloudy
7:55 AM 37.4 °F 28.2 °F 24.1 °F 59% 29.61 in 10.0 mi WNW 16.1 mph 24.2 mph N/A   Scattered Clouds
8:15 AM 37.6 °F 28.1 °F 24.8 °F 60% 29.61 in 10.0 mi WNW 17.3 mph 28.8 mph N/A   Scattered Clouds
8:35 AM 37.4 °F 27.8 °F 26.2 °F 64% 29.62 in 10.0 mi WNW 17.3 mph 35.7 mph N/A   Scattered Clouds
8:55 AM 36.9 °F 27.1 °F 27.5 °F 69% 29.62 in 10.0 mi West 17.3 mph 26.5 mph N/A   Scattered Clouds
9:15 AM 37.4 °F 27.8 °F 26.4 °F 65% 29.62 in 10.0 mi WNW 17.3 mph 25.3 mph N/A   Scattered Clouds
9:35 AM 36.1 °F 24.4 °F 23.7 °F 61% 29.63 in 10.0 mi NW 24.2 mph 38.0 mph N/A   Scattered Clouds
9:55 AM 36.0 °F 25.0 °F 23.7 °F 61% 29.64 in 10.0 mi NW 20.7 mph 40.3 mph N/A   Clear
10:15 AM 35.1 °F 23.8 °F 24.3 °F 65% 29.65 in 10.0 mi NW 20.7 mph 32.2 mph N/A   Scattered Clouds
10:35 AM 35.2 °F 24.7 °F 23.7 °F 63% 29.65 in 10.0 mi NW 18.4 mph 27.6 mph N/A   Clear
10:55 AM 35.6 °F 23.7 °F 23.5 °F 62% 29.66 in 10.0 mi NW 24.2 mph 34.5 mph N/A   Scattered Clouds
11:15 AM 34.7 °F 23.1 °F 24.1 °F 65% 29.67 in 7.0 mi NW 21.9 mph 33.4 mph N/A Snow Light Snow
11:35 AM 33.6 °F 22.2 °F 25.2 °F 71% 29.66 in 7.0 mi NW 19.6 mph 26.5 mph N/A   Mostly Cloudy
11:55 AM 36.7 °F 25.1 °F 23.2 °F 58% 29.66 in 10.0 mi NW 24.2 mph 32.2 mph N/A   Scattered Clouds
12:15 PM 35.2 °F 24.4 °F 21.4 °F 57% 29.66 in 10.0 mi NNW 19.6 mph 28.8 mph N/A   Scattered Clouds
12:35 PM 35.1 °F 25.9 °F 21.9 °F 59% 29.66 in 10.0 mi NNW 13.8 mph 19.6 mph N/A   Scattered Clouds
12:55 PM 34.7 °F 25.1 °F 20.8 °F 57% 29.66 in 10.0 mi NW 15.0 mph - N/A   Clear
1:15 PM 34.0 °F 26.0 °F 21.4 °F 60% 29.67 in 7.0 mi NW 10.4 mph 19.6 mph N/A Snow Light Snow
1:35 PM 34.2 °F 26.2 °F 20.3 °F 57% 29.67 in 10.0 mi NW 10.4 mph - N/A   Scattered Clouds
1:55 PM 33.8 °F 23.9 °F 19.6 °F 56% 29.67 in 10.0 mi WNW 15.0 mph 23.0 mph N/A   Scattered Clouds
2:35 PM 32.4 °F 22.5 °F 22.1 °F 66% 29.67 in 10.0 mi West 13.8 mph 18.4 mph N/A   Clear
2:55 PM 32.0 °F 23.6 °F 22.6 °F 68% 29.68 in 7.0 mi West 10.4 mph 17.3 mph N/A Snow Light Snow
3:15 PM 31.6 °F 22.6 °F 24.8 °F 76% 29.68 in 7.0 mi West 11.5 mph - N/A Snow Light Snow
3:35 PM 30.9 °F - 27.0 °F 85% 29.66 in 2.0 mi Calm Calm - N/A Snow Light Snow
3:55 PM 30.9 °F - 27.3 °F 86% 29.65 in 10.0 mi Calm Calm - N/A   Scattered Clouds
4:15 PM 31.3 °F - 27.3 °F 85% 29.65 in 7.0 mi Calm Calm - N/A Snow Light Snow
4:35 PM 30.6 °F - 27.9 °F 90% 29.66 in 0.2 mi Calm Calm - N/A Snow Snow
4:55 PM 26.4 °F 14.5 °F 24.8 °F 94% 29.69 in 0.2 mi North 15.0 mph 28.8 mph 0.01 in Snow Snow
5:15 PM 21.7 °F 4.6 °F 19.2 °F 90% 29.74 in 0.5 mi NNW 26.5 mph 33.4 mph N/A Snow Snow
5:35 PM 19.0 °F 2.0 °F 15.3 °F 85% 29.77 in 1.2 mi NNW 23.0 mph 33.4 mph N/A Snow Light Snow
5:55 PM 18.3 °F -0.0 °F 14.4 °F 85% 29.79 in 2.5 mi NW 26.5 mph 32.2 mph N/A Snow Light Snow
6:15 PM 15.8 °F -4.4 °F 12.6 °F 87% 29.82 in 1.0 mi NW 29.9 mph 40.3 mph N/A Snow Snow
6:35 PM 12.2 °F -8.9 °F 6.1 °F 76% 29.84 in 1.8 mi NNW 28.8 mph 36.8 mph N/A Snow Light Snow
6:55 PM 10.9 °F -9.9 °F 3.7 °F 73% 29.86 in 2.0 mi NNW 26.5 mph 40.3 mph N/A Snow Light Snow
7:15 PM 10.4 °F -7.7 °F 1.8 °F 68% 29.88 in 2.5 mi NW 18.4 mph 33.4 mph N/A   Haze
7:35 PM 10.4 °F -7.2 °F 1.4 °F 67% 29.88 in 10.0 mi NNW 17.3 mph 24.2 mph N/A   Clear
7:55 PM 10.4 °F -9.1 °F 4.1 °F 76% 29.90 in 4.0 mi NNW 21.9 mph 33.4 mph N/A Snow Light Snow
8:15 PM 9.0 °F -9.5 °F -0.2 °F 66% 29.90 in 5.0 mi NNW 18.4 mph 26.5 mph N/A   Haze
8:35 PM 8.6 °F -10.5 °F 1.9 °F 74% 29.91 in 5.0 mi NW 19.6 mph 29.9 mph N/A   Haze
8:55 PM 9.0 °F -9.5 °F 0.3 °F 68% 29.91 in 10.0 mi NNW 18.4 mph 26.5 mph N/A   Scattered Clouds
9:15 PM 8.8 °F -7.5 °F 3.6 °F 79% 29.92 in 3.0 mi NW 13.8 mph 25.3 mph N/A Snow Light Snow
9:35 PM 8.2 °F -11.0 °F 2.7 °F 78% 29.93 in 4.0 mi NW 19.6 mph 28.8 mph N/A   Haze
9:55 PM 8.2 °F -12.4 °F -0.2 °F 68% 29.93 in 7.0 mi NW 23.0 mph 28.8 mph N/A   Scattered Clouds
10:15 PM 7.5 °F -12.4 °F -0.8 °F 69% 29.94 in 5.0 mi NW 20.7 mph 32.2 mph N/A   Haze
10:35 PM 7.3 °F -12.6 °F -1.1 °F 68% 29.94 in 5.0 mi NNW 20.7 mph 31.1 mph N/A   Haze
10:55 PM 7.5 °F -13.3 °F -2.2 °F 65% 29.94 in 7.0 mi NNW 23.0 mph 32.2 mph N/A   Mostly Cloudy
11:15 PM 7.5 °F -11.9 °F -0.4 °F 70% 29.94 in 10.0 mi NW 19.6 mph 27.6 mph N/A   Scattered Clouds
11:35 PM 7.3 °F -10.0 °F 0.7 °F 74% 29.95 in 7.0 mi NW 15.0 mph 24.2 mph N/A   Scattered Clouds
11:55 PM 7.2 °F -13.8 °F -2.2 °F 66% 29.95 in 7.0 mi NNW 23.0 mph 28.8 mph N/A   Scattered Clouds